CSN8888 YPPD-ZGGG

Flight info

Callsign CSN8888
Flight time 6h 0m
Altitude FL321
Route GOLUX G578 BLI M522 ELANG R223 BRU L649 LAXOR M772 DULOP M771 DUMOL J103 BEKOL A461 IDUMA
Aircraft A21N/M-SDE1E2E3FGHIJ2J3J4J5M1RWXYZ/LB1D1

Departure

Time 2026-04-22 01:22
Airport Port Hedland International Airport (YPPD)

Arrival

Time 2026-04-22 07:23
Airport Guangzhou Baiyun International Airport (ZGGG)
Time Latitude Longitude Altitude Speed Heading
2026-04-22 01:14 -20.37862 118.63093 38 ft 0 kts 49°
2026-04-22 01:20 -20.37861 118.63093 38 ft 0 kts 49°
2026-04-22 01:21 -20.37855 118.63102 37 ft 3 kts 56°
2026-04-22 01:21 -20.37872 118.63108 36 ft 5 kts 226°
2026-04-22 01:21 -20.39050 118.63761 38 ft 7 kts 317°
2026-04-22 01:21 -20.39003 118.63715 39 ft 18 kts 317°
2026-04-22 01:22 -20.38695 118.63423 40 ft 98 kts 318°
2026-04-22 01:22 -20.38036 118.62769 43 ft 157 kts 319°
2026-04-22 01:22 -20.37282 118.61967 625 ft 154 kts 320°
2026-04-22 01:22 -20.36471 118.61189 996 ft 161 kts 318°
2026-04-22 01:23 -20.35628 118.60370 1426 ft 166 kts 319°
2026-04-22 01:23 -20.34741 118.59587 1993 ft 167 kts 333°
2026-04-22 01:23 -20.33639 118.59243 2562 ft 165 kts 348°
2026-04-22 01:23 -20.32535 118.58921 3199 ft 165 kts 347°
2026-04-22 01:24 -20.31397 118.58576 3727 ft 178 kts 347°
2026-04-22 01:24 -20.30137 118.58187 4203 ft 198 kts 347°
2026-04-22 01:24 -20.28761 118.57757 4758 ft 216 kts 347°
2026-04-22 01:24 -20.27260 118.57294 5206 ft 237 kts 347°
2026-04-22 01:25 -20.25592 118.56783 5793 ft 259 kts 347°
2026-04-22 01:25 -20.23806 118.56233 6476 ft 275 kts 347°
2026-04-22 01:25 -20.21946 118.55657 7296 ft 283 kts 347°
2026-04-22 01:25 -20.20035 118.55064 8227 ft 287 kts 347°
2026-04-22 01:26 -20.18113 118.54468 9209 ft 291 kts 347°
2026-04-22 01:26 -20.16161 118.53865 10146 ft 294 kts 346°
2026-04-22 01:26 -20.14132 118.53238 10647 ft 316 kts 346°
2026-04-22 01:26 -20.11950 118.52566 10990 ft 339 kts 345°
2026-04-22 01:27 -20.09604 118.51843 11300 ft 362 kts 345°
2026-04-22 01:27 -20.07128 118.51079 11576 ft 382 kts 345°
2026-04-22 01:27 -20.04518 118.50273 11854 ft 400 kts 345°
2026-04-22 01:27 -20.01812 118.49438 12205 ft 411 kts 345°
2026-04-22 01:28 -19.99042 118.48583 12733 ft 416 kts 344°
2026-04-22 01:28 -19.96259 118.47725 13297 ft 419 kts 345°
2026-04-22 01:28 -19.93456 118.46861 13854 ft 423 kts 344°
2026-04-22 01:28 -19.90624 118.45989 14299 ft 426 kts 344°
2026-04-22 01:29 -19.87773 118.45109 14759 ft 429 kts 344°
2026-04-22 01:29 -19.84904 118.44219 15281 ft 432 kts 343°
2026-04-22 01:29 -19.82016 118.43323 15782 ft 435 kts 343°
2026-04-22 01:29 -19.79108 118.42430 16232 ft 438 kts 343°
2026-04-22 01:30 -19.76177 118.41539 16659 ft 440 kts 343°
2026-04-22 01:30 -19.73222 118.40640 17088 ft 443 kts 343°
2026-04-22 01:30 -19.70264 118.39733 17508 ft 446 kts 343°
2026-04-22 01:30 -19.67281 118.38814 17926 ft 449 kts 343°
2026-04-22 01:31 -19.64277 118.37893 18345 ft 451 kts 343°
2026-04-22 01:31 -19.61255 118.36969 18753 ft 453 kts 343°
2026-04-22 01:31 -19.58231 118.36044 19180 ft 455 kts 343°
2026-04-22 01:31 -19.55193 118.35113 19643 ft 457 kts 343°
2026-04-22 01:32 -19.52143 118.34178 20114 ft 458 kts 343°
2026-04-22 01:32 -19.49074 118.33239 20579 ft 460 kts 343°
2026-04-22 01:32 -19.45994 118.32296 21119 ft 462 kts 343°
2026-04-22 01:32 -19.42907 118.31352 21724 ft 465 kts 342°
2026-04-22 01:33 -19.39796 118.30402 22284 ft 467 kts 342°
2026-04-22 01:33 -19.36666 118.29446 22765 ft 470 kts 343°
2026-04-22 01:33 -19.33522 118.28485 23223 ft 473 kts 342°
2026-04-22 01:33 -19.30358 118.27518 23637 ft 475 kts 342°
2026-04-22 01:34 -19.27184 118.26549 23976 ft 477 kts 342°
2026-04-22 01:34 -19.23994 118.25575 24283 ft 479 kts 342°
2026-04-22 01:34 -19.20792 118.24599 24561 ft 481 kts 342°
2026-04-22 01:34 -19.17582 118.23618 24890 ft 482 kts 342°
2026-04-22 01:35 -19.14373 118.22643 25272 ft 480 kts 342°
2026-04-22 01:35 -19.11172 118.21667 25695 ft 479 kts 342°
2026-04-22 01:35 -19.07976 118.20693 26085 ft 478 kts 342°
2026-04-22 01:35 -19.04791 118.19723 26482 ft 477 kts 341°
2026-04-22 01:36 -19.01611 118.18754 26882 ft 476 kts 341°
2026-04-22 01:36 -18.98440 118.17791 27289 ft 474 kts 341°
2026-04-22 01:36 -18.95283 118.16832 27687 ft 473 kts 341°
2026-04-22 01:36 -18.92118 118.15870 28086 ft 472 kts 341°
2026-04-22 01:37 -18.88972 118.14914 28474 ft 471 kts 341°
2026-04-22 01:37 -18.85832 118.13960 28863 ft 470 kts 341°
2026-04-22 01:37 -18.82695 118.13009 29251 ft 469 kts 341°
2026-04-22 01:37 -18.79563 118.12057 29651 ft 468 kts 341°
2026-04-22 01:38 -18.76445 118.11107 30044 ft 467 kts 341°
2026-04-22 01:38 -18.73335 118.10158 30390 ft 466 kts 341°
2026-04-22 01:38 -18.70226 118.09215 30736 ft 465 kts 341°
2026-04-22 01:38 -18.67127 118.08276 31083 ft 464 kts 340°
2026-04-22 01:39 -18.64035 118.07343 31432 ft 463 kts 340°
2026-04-22 01:39 -18.60950 118.06415 31787 ft 462 kts 340°
2026-04-22 01:39 -18.57866 118.05484 32142 ft 461 kts 340°
2026-04-22 01:39 -18.54798 118.04555 32502 ft 459 kts 340°
2026-04-22 01:40 -18.51733 118.03627 32809 ft 459 kts 340°
2026-04-22 01:40 -18.48671 118.02701 33108 ft 459 kts 340°
2026-04-22 01:40 -18.45610 118.01777 33430 ft 458 kts 340°
2026-04-22 01:40 -18.42551 118.00852 33758 ft 457 kts 340°
2026-04-22 01:41 -18.39501 117.99932 34058 ft 457 kts 340°
2026-04-22 01:41 -18.36453 117.99013 34333 ft 456 kts 339°
2026-04-22 01:41 -18.33420 117.98098 34603 ft 455 kts 339°
2026-04-22 01:41 -18.30383 117.97183 34867 ft 454 kts 339°
2026-04-22 01:42 -18.27351 117.96269 35126 ft 454 kts 339°
2026-04-22 01:42 -18.24332 117.95358 35365 ft 453 kts 339°
2026-04-22 01:42 -18.21299 117.94444 35567 ft 454 kts 339°
2026-04-22 01:42 -18.18271 117.93531 35791 ft 454 kts 339°
2026-04-22 01:43 -18.15246 117.92621 36031 ft 453 kts 339°
2026-04-22 01:43 -18.12218 117.91709 36261 ft 453 kts 339°
2026-04-22 01:43 -18.09196 117.90801 36490 ft 453 kts 339°
2026-04-22 01:43 -18.06177 117.89893 36715 ft 452 kts 339°
2026-04-22 01:44 -18.03159 117.88987 36937 ft 451 kts 339°
2026-04-22 01:44 -18.00153 117.88083 37152 ft 451 kts 339°
2026-04-22 01:44 -17.97142 117.87179 37356 ft 451 kts 339°
2026-04-22 01:44 -17.94137 117.86265 37528 ft 450 kts 339°
2026-04-22 01:45 -17.91139 117.85341 37689 ft 451 kts 339°
2026-04-22 01:45 -17.88130 117.84415 37848 ft 451 kts 339°
2026-04-22 01:45 -17.85130 117.83490 37984 ft 452 kts 339°
2026-04-22 01:45 -17.82118 117.82564 38003 ft 451 kts 339°
2026-04-22 01:46 -17.76115 117.80725 37975 ft 450 kts 339°
2026-04-22 01:46 -17.70104 117.78884 37971 ft 451 kts 339°
2026-04-22 01:47 -17.64097 117.77041 37960 ft 451 kts 339°
2026-04-22 01:47 -17.58086 117.75200 37961 ft 451 kts 340°
2026-04-22 01:48 -17.52072 117.73361 37960 ft 451 kts 339°
2026-04-22 01:48 -17.46050 117.71522 37962 ft 451 kts 340°
2026-04-22 01:49 -17.40028 117.69683 37965 ft 451 kts 339°
2026-04-22 01:49 -17.34013 117.67846 37958 ft 451 kts 340°
2026-04-22 01:50 -17.27997 117.66016 37965 ft 451 kts 340°
2026-04-22 01:50 -17.21978 117.64182 37961 ft 451 kts 340°
2026-04-22 01:51 -17.15959 117.62348 37962 ft 451 kts 340°
2026-04-22 01:51 -17.09946 117.60520 37962 ft 451 kts 340°
2026-04-22 01:52 -17.03930 117.58679 37955 ft 452 kts 339°
2026-04-22 01:52 -16.97907 117.56850 37957 ft 452 kts 340°
2026-04-22 01:53 -16.91884 117.55023 37955 ft 452 kts 340°
2026-04-22 01:53 -16.85861 117.53198 37955 ft 452 kts 339°
2026-04-22 01:54 -16.79835 117.51366 37956 ft 452 kts 339°
2026-04-22 01:54 -16.73812 117.49532 37956 ft 452 kts 340°
2026-04-22 01:55 -16.67773 117.47704 37955 ft 453 kts 340°
2026-04-22 01:55 -16.61748 117.45886 37952 ft 451 kts 340°
2026-04-22 01:56 -16.55732 117.44070 37951 ft 451 kts 340°
2026-04-22 01:56 -16.49723 117.42251 37949 ft 451 kts 340°
2026-04-22 01:57 -16.43695 117.40431 37948 ft 452 kts 341°
2026-04-22 01:57 -16.37662 117.38608 37946 ft 452 kts 341°
2026-04-22 01:58 -16.31622 117.36784 37949 ft 452 kts 340°
2026-04-22 01:58 -16.25591 117.34958 37949 ft 453 kts 341°
2026-04-22 01:59 -16.19556 117.33146 37948 ft 453 kts 341°
2026-04-22 01:59 -16.13513 117.31324 37948 ft 453 kts 341°
2026-04-22 02:00 -16.07476 117.29504 37947 ft 453 kts 341°
2026-04-22 02:00 -16.01443 117.27689 37949 ft 453 kts 341°
2026-04-22 02:01 -15.95406 117.25874 37946 ft 453 kts 341°
2026-04-22 02:01 -15.89374 117.24065 37947 ft 453 kts 341°
2026-04-22 02:02 -15.83330 117.22258 37944 ft 452 kts 341°
2026-04-22 02:02 -15.77297 117.20454 37944 ft 452 kts 341°
2026-04-22 02:03 -15.71263 117.18651 37945 ft 452 kts 341°
2026-04-22 02:03 -15.65236 117.16845 37944 ft 453 kts 341°
2026-04-22 02:04 -15.56166 117.14123 37936 ft 453 kts 341°
2026-04-22 02:05 -15.50137 117.12324 37937 ft 452 kts 341°
2026-04-22 02:05 -15.44102 117.10520 37940 ft 452 kts 341°
2026-04-22 02:06 -15.38068 117.08716 37938 ft 452 kts 341°
2026-04-22 02:06 -15.32039 117.06916 37939 ft 452 kts 341°
2026-04-22 02:07 -15.26016 117.05119 37934 ft 451 kts 341°
2026-04-22 02:07 -15.20014 117.03317 37935 ft 450 kts 341°
2026-04-22 02:08 -15.14016 117.01514 37937 ft 450 kts 341°
2026-04-22 02:08 -15.08005 116.99737 37936 ft 450 kts 341°
2026-04-22 02:09 -15.01994 116.97962 37935 ft 450 kts 341°
2026-04-22 02:09 -14.95990 116.96176 37930 ft 450 kts 341°
2026-04-22 02:10 -14.89991 116.94392 37932 ft 449 kts 341°
2026-04-22 02:10 -14.83997 116.92612 37937 ft 449 kts 341°
2026-04-22 02:11 -14.77994 116.90827 37931 ft 450 kts 341°
2026-04-22 02:11 -14.72003 116.89040 37931 ft 450 kts 341°
2026-04-22 02:12 -14.66004 116.87264 37926 ft 450 kts 341°
2026-04-22 02:12 -14.59998 116.85486 37930 ft 450 kts 342°
2026-04-22 02:13 -14.53991 116.83700 37933 ft 450 kts 342°
2026-04-22 02:13 -14.47992 116.81918 37933 ft 450 kts 342°
2026-04-22 02:14 -14.41981 116.80139 37929 ft 450 kts 342°
2026-04-22 02:14 -14.35976 116.78362 37927 ft 450 kts 342°
2026-04-22 02:15 -14.29972 116.76587 37929 ft 449 kts 342°
2026-04-22 02:15 -14.23970 116.74817 37928 ft 449 kts 341°
2026-04-22 02:16 -14.17961 116.73045 37923 ft 450 kts 341°
2026-04-22 02:16 -14.11961 116.71271 37928 ft 450 kts 341°
2026-04-22 02:17 -14.05959 116.69502 37927 ft 450 kts 342°
2026-04-22 02:17 -13.99954 116.67735 37922 ft 451 kts 342°
2026-04-22 02:18 -13.93940 116.65969 37928 ft 451 kts 342°
2026-04-22 02:18 -13.87929 116.64192 37920 ft 450 kts 342°
2026-04-22 02:19 -13.81914 116.62417 37921 ft 450 kts 342°
2026-04-22 02:19 -13.75898 116.60653 37921 ft 450 kts 342°
2026-04-22 02:20 -13.69871 116.58884 37920 ft 452 kts 342°
2026-04-22 02:20 -13.63821 116.57110 37922 ft 452 kts 342°
2026-04-22 02:21 -13.57768 116.55334 37918 ft 454 kts 342°
2026-04-22 02:21 -13.51703 116.53552 37922 ft 454 kts 342°
2026-04-22 02:22 -13.45640 116.51773 37929 ft 454 kts 342°
2026-04-22 02:22 -13.39580 116.50000 37914 ft 455 kts 343°
2026-04-22 02:23 -13.33522 116.48228 37909 ft 454 kts 343°
2026-04-22 02:23 -13.27471 116.46451 37919 ft 453 kts 343°
2026-04-22 02:24 -13.21412 116.44677 37917 ft 453 kts 343°
2026-04-22 02:24 -13.15364 116.42907 37911 ft 452 kts 343°
2026-04-22 02:25 -13.09310 116.41139 37919 ft 452 kts 342°
2026-04-22 02:25 -13.03267 116.39370 37916 ft 453 kts 342°
2026-04-22 02:26 -12.97217 116.37604 37914 ft 454 kts 343°
2026-04-22 02:26 -12.91161 116.35837 37917 ft 453 kts 343°
2026-04-22 02:27 -12.85106 116.34069 37913 ft 455 kts 343°
2026-04-22 02:27 -12.79055 116.32302 37903 ft 454 kts 343°
2026-04-22 02:28 -12.72981 116.30524 37913 ft 455 kts 343°
2026-04-22 02:28 -12.66891 116.28759 37915 ft 455 kts 342°
2026-04-22 02:29 -12.60814 116.26995 37911 ft 454 kts 343°
2026-04-22 02:29 -12.54734 116.25217 37909 ft 454 kts 342°
2026-04-22 02:30 -12.48663 116.23455 37906 ft 454 kts 342°
2026-04-22 02:30 -12.42564 116.21681 37910 ft 459 kts 342°
2026-04-22 02:31 -12.36437 116.19899 37911 ft 460 kts 342°
2026-04-22 02:31 -12.30301 116.18116 37913 ft 459 kts 342°
2026-04-22 02:32 -12.24174 116.16337 37904 ft 459 kts 343°
2026-04-22 02:32 -12.18032 116.14554 37904 ft 459 kts 343°
2026-04-22 02:33 -12.11882 116.12772 37907 ft 462 kts 342°
2026-04-22 02:33 -12.05699 116.10981 37904 ft 463 kts 342°
2026-04-22 02:34 -11.99519 116.09189 37902 ft 463 kts 342°
2026-04-22 02:34 -11.93370 116.07300 37901 ft 462 kts 341°
2026-04-22 02:35 -11.87228 116.05396 37905 ft 462 kts 341°
2026-04-22 02:35 -11.81075 116.03495 37909 ft 464 kts 341°
2026-04-22 02:36 -11.74905 116.01595 37909 ft 464 kts 341°
2026-04-22 02:36 -11.68734 115.99695 37908 ft 464 kts 341°
2026-04-22 02:37 -11.62560 115.97800 37898 ft 464 kts 341°
2026-04-22 02:37 -11.56380 115.95900 37906 ft 464 kts 341°
2026-04-22 02:38 -11.50214 115.94005 37903 ft 464 kts 341°
2026-04-22 02:38 -11.44037 115.92107 37907 ft 464 kts 341°
2026-04-22 02:39 -11.37868 115.90217 37909 ft 464 kts 341°
2026-04-22 02:39 -11.31706 115.88324 37901 ft 464 kts 341°
2026-04-22 02:40 -11.25531 115.86427 37903 ft 464 kts 341°
2026-04-22 02:40 -11.19366 115.84539 37901 ft 464 kts 342°
2026-04-22 02:41 -11.13189 115.82744 37894 ft 461 kts 343°
2026-04-22 02:41 -11.07017 115.81011 37902 ft 461 kts 343°
2026-04-22 02:42 -11.00854 115.79283 37899 ft 461 kts 343°
2026-04-22 02:42 -10.94674 115.77547 37898 ft 461 kts 343°
2026-04-22 02:43 -10.88505 115.75812 37901 ft 461 kts 343°
2026-04-22 02:43 -10.82329 115.74080 37903 ft 462 kts 343°
2026-04-22 02:44 -10.76142 115.72343 37902 ft 462 kts 343°
2026-04-22 02:44 -10.69960 115.70612 37899 ft 462 kts 343°
2026-04-22 02:45 -10.63773 115.68879 37900 ft 462 kts 343°
2026-04-22 02:45 -10.57602 115.67149 37899 ft 462 kts 343°
2026-04-22 02:46 -10.51395 115.65410 37904 ft 465 kts 343°
2026-04-22 02:46 -10.45174 115.63669 37890 ft 465 kts 343°
2026-04-22 02:47 -10.38939 115.61927 37898 ft 465 kts 343°
2026-04-22 02:47 -10.32708 115.60181 37893 ft 465 kts 343°
2026-04-22 02:48 -10.26479 115.58440 37897 ft 465 kts 343°
2026-04-22 02:48 -10.20243 115.56694 37890 ft 468 kts 343°
2026-04-22 02:49 -10.13954 115.54934 37897 ft 470 kts 343°
2026-04-22 02:49 -10.07660 115.53183 37894 ft 470 kts 343°
2026-04-22 02:50 -10.01371 115.51428 37896 ft 470 kts 343°
2026-04-22 02:50 -9.95073 115.49677 37889 ft 470 kts 343°
2026-04-22 02:51 -9.88771 115.47917 37890 ft 470 kts 343°
2026-04-22 02:51 -9.82483 115.46164 37897 ft 470 kts 343°
2026-04-22 02:52 -9.76182 115.44411 37896 ft 470 kts 343°
2026-04-22 02:52 -9.69892 115.42660 37893 ft 470 kts 343°
2026-04-22 02:53 -9.63592 115.40907 37893 ft 470 kts 343°
2026-04-22 02:53 -9.57297 115.39159 37895 ft 470 kts 343°
2026-04-22 02:54 -9.51028 115.37414 37897 ft 467 kts 343°
2026-04-22 02:54 -9.44774 115.35671 37896 ft 467 kts 343°
2026-04-22 02:55 -9.38521 115.33933 37897 ft 467 kts 343°
2026-04-22 02:55 -9.32266 115.32195 37902 ft 466 kts 343°
2026-04-22 02:56 -9.26026 115.30459 37901 ft 466 kts 343°
2026-04-22 02:56 -9.19771 115.28718 37901 ft 469 kts 343°
2026-04-22 02:57 -9.13494 115.26978 37895 ft 469 kts 344°
2026-04-22 02:57 -9.07209 115.25239 37899 ft 469 kts 344°
2026-04-22 02:58 -9.00936 115.23500 37895 ft 469 kts 344°
2026-04-22 02:58 -8.94661 115.21760 37884 ft 469 kts 344°
2026-04-22 02:59 -8.88379 115.20017 37873 ft 469 kts 344°
2026-04-22 02:59 -8.82102 115.18279 37879 ft 469 kts 344°
2026-04-22 03:00 -8.75807 115.16580 37871 ft 469 kts 348°
2026-04-22 03:00 -8.69319 115.16045 37878 ft 470 kts 358°
2026-04-22 03:01 -8.62802 115.15799 37874 ft 470 kts 357°
2026-04-22 03:01 -8.56286 115.15526 37876 ft 468 kts 358°
2026-04-22 03:02 -8.49822 115.15246 37887 ft 465 kts 358°
2026-04-22 03:02 -8.43365 115.14976 37893 ft 465 kts 358°
2026-04-22 03:03 -8.36910 115.14704 37910 ft 465 kts 358°
2026-04-22 03:03 -8.30449 115.14429 37908 ft 465 kts 358°
2026-04-22 03:04 -8.23999 115.14153 37918 ft 465 kts 358°
2026-04-22 03:04 -8.17515 115.13877 37922 ft 468 kts 358°
2026-04-22 03:05 -8.11022 115.13600 37923 ft 468 kts 358°
2026-04-22 03:05 -8.04537 115.13326 37920 ft 468 kts 358°
2026-04-22 03:06 -7.98042 115.13048 37919 ft 468 kts 358°
2026-04-22 03:06 -7.91556 115.12775 37914 ft 468 kts 358°
2026-04-22 03:07 -7.85043 115.12495 37916 ft 472 kts 358°
2026-04-22 03:07 -7.78478 115.12215 37906 ft 473 kts 358°
2026-04-22 03:08 -7.71927 115.11936 37906 ft 472 kts 358°
2026-04-22 03:08 -7.65359 115.11658 37906 ft 473 kts 358°
2026-04-22 03:09 -7.58808 115.11378 37905 ft 473 kts 358°
2026-04-22 03:09 -7.52235 115.11101 37904 ft 474 kts 358°
2026-04-22 03:10 -7.45645 115.10822 37903 ft 475 kts 358°
2026-04-22 03:10 -7.39057 115.10544 37906 ft 475 kts 358°
2026-04-22 03:11 -7.32459 115.10265 37906 ft 475 kts 358°
2026-04-22 03:11 -7.25871 115.09985 37903 ft 475 kts 358°
2026-04-22 03:12 -7.19286 115.09701 37902 ft 473 kts 358°
2026-04-22 03:12 -7.09453 115.09291 37902 ft 473 kts 358°
2026-04-22 03:13 -7.02901 115.09016 37902 ft 473 kts 358°
2026-04-22 03:13 -6.96350 115.08743 37901 ft 472 kts 358°
2026-04-22 03:14 -6.89800 115.08464 37903 ft 473 kts 358°
2026-04-22 03:14 -6.83257 115.08189 37901 ft 472 kts 358°
2026-04-22 03:15 -6.76715 115.07840 37903 ft 471 kts 357°
2026-04-22 03:15 -6.70182 115.07460 37903 ft 471 kts 358°
2026-04-22 03:16 -6.63647 115.07086 37905 ft 471 kts 357°
2026-04-22 03:16 -6.57116 115.06714 37904 ft 471 kts 357°
2026-04-22 03:17 -6.50575 115.06343 37902 ft 471 kts 357°
2026-04-22 03:17 -6.44038 115.05982 37901 ft 471 kts 358°
2026-04-22 03:18 -6.37505 115.05615 37901 ft 471 kts 358°
2026-04-22 03:18 -6.30967 115.05247 37900 ft 471 kts 357°
2026-04-22 03:19 -6.24439 115.04881 37900 ft 471 kts 357°
2026-04-22 03:19 -6.17899 115.04508 37901 ft 471 kts 358°
2026-04-22 03:20 -6.11378 115.04143 37902 ft 470 kts 358°
2026-04-22 03:20 -6.04852 115.03768 37900 ft 470 kts 358°
2026-04-22 03:21 -5.98329 115.03402 37902 ft 471 kts 358°
2026-04-22 03:21 -5.91806 115.03036 37903 ft 471 kts 357°
2026-04-22 03:22 -5.85287 115.02650 37905 ft 470 kts 358°
2026-04-22 03:22 -5.78810 115.02272 37900 ft 466 kts 358°
2026-04-22 03:23 -5.72344 115.01914 37898 ft 466 kts 357°
2026-04-22 03:23 -5.65879 115.01540 37903 ft 466 kts 357°
2026-04-22 03:24 -5.59419 115.01186 37902 ft 466 kts 358°
2026-04-22 03:24 -5.52951 115.00822 37899 ft 466 kts 358°
2026-04-22 03:25 -5.46494 115.00447 37899 ft 466 kts 358°
2026-04-22 03:25 -5.40040 115.00084 37901 ft 466 kts 357°
2026-04-22 03:26 -5.33582 114.99710 37897 ft 466 kts 358°
2026-04-22 03:26 -5.27124 114.99349 37898 ft 466 kts 358°
2026-04-22 03:27 -5.20662 114.98994 37898 ft 466 kts 358°
2026-04-22 03:27 -5.14220 114.98639 37897 ft 464 kts 358°
2026-04-22 03:28 -5.07790 114.98282 37896 ft 463 kts 358°
2026-04-22 03:28 -5.01357 114.97923 37900 ft 464 kts 358°
2026-04-22 03:29 -4.94928 114.97559 37897 ft 464 kts 357°
2026-04-22 03:29 -4.88506 114.97200 37897 ft 464 kts 358°
2026-04-22 03:30 -4.82077 114.96837 37902 ft 465 kts 358°
2026-04-22 03:30 -4.75611 114.96477 37899 ft 467 kts 358°
2026-04-22 03:31 -4.69135 114.96101 37901 ft 467 kts 357°
2026-04-22 03:31 -4.62662 114.95740 37898 ft 467 kts 358°
2026-04-22 03:32 -4.56189 114.95389 37898 ft 467 kts 358°
2026-04-22 03:32 -4.49708 114.95021 37896 ft 467 kts 358°
2026-04-22 03:33 -4.43224 114.94644 37898 ft 468 kts 358°
2026-04-22 03:33 -4.36727 114.94293 37902 ft 468 kts 358°
2026-04-22 03:34 -4.30225 114.94033 37896 ft 468 kts 359°
2026-04-22 03:34 -4.23721 114.93827 37901 ft 468 kts 359°
2026-04-22 03:35 -4.17216 114.93619 37896 ft 468 kts 359°
2026-04-22 03:35 -4.10719 114.93415 37907 ft 469 kts 359°
2026-04-22 03:36 -4.04201 114.93208 37904 ft 470 kts 359°
2026-04-22 03:36 -3.97672 114.93003 37905 ft 470 kts 359°
2026-04-22 03:37 -3.91156 114.92797 37904 ft 470 kts 359°
2026-04-22 03:37 -3.84638 114.92589 37905 ft 470 kts 359°
2026-04-22 03:38 -3.78115 114.92388 37907 ft 471 kts 359°
2026-04-22 03:38 -3.71567 114.92180 37910 ft 472 kts 359°
2026-04-22 03:39 -3.65010 114.91971 37901 ft 472 kts 359°
2026-04-22 03:39 -3.58451 114.91768 37903 ft 472 kts 359°
2026-04-22 03:40 -3.51889 114.91563 37894 ft 472 kts 359°
2026-04-22 03:40 -3.45328 114.91356 37903 ft 473 kts 359°
2026-04-22 03:41 -3.38799 114.91150 37902 ft 470 kts 359°
2026-04-22 03:41 -3.32284 114.90946 37900 ft 470 kts 359°
2026-04-22 03:42 -3.25777 114.90740 37900 ft 469 kts 359°
2026-04-22 03:42 -3.19264 114.90537 37897 ft 469 kts 359°
2026-04-22 03:43 -3.12748 114.90331 37896 ft 469 kts 358°
2026-04-22 03:43 -3.06239 114.90126 37896 ft 469 kts 359°
2026-04-22 03:44 -2.99726 114.89904 37894 ft 469 kts 358°
2026-04-22 03:44 -2.93212 114.89683 37895 ft 469 kts 359°
2026-04-22 03:45 -2.86703 114.89492 37904 ft 469 kts 359°
2026-04-22 03:45 -2.80190 114.89301 37903 ft 469 kts 359°
2026-04-22 03:46 -2.73691 114.89100 37902 ft 467 kts 358°
2026-04-22 03:46 -2.67219 114.88891 37897 ft 467 kts 359°
2026-04-22 03:47 -2.60736 114.88689 37900 ft 467 kts 358°
2026-04-22 03:47 -2.54262 114.88481 37898 ft 467 kts 358°
2026-04-22 03:48 -2.47784 114.88285 37895 ft 466 kts 358°
2026-04-22 03:48 -2.41311 114.88082 37902 ft 467 kts 359°
2026-04-22 03:49 -2.34805 114.87878 37899 ft 469 kts 359°
2026-04-22 03:49 -2.28297 114.87671 37902 ft 469 kts 359°
2026-04-22 03:50 -2.21782 114.87466 37899 ft 469 kts 359°
2026-04-22 03:50 -2.15266 114.87262 37902 ft 469 kts 359°
2026-04-22 03:51 -2.08749 114.87059 37893 ft 469 kts 359°
2026-04-22 03:51 -2.02231 114.86851 37894 ft 470 kts 359°
2026-04-22 03:52 -1.95699 114.86642 37899 ft 470 kts 359°
2026-04-22 03:52 -1.89167 114.86434 37900 ft 470 kts 359°
2026-04-22 03:53 -1.82640 114.86228 37904 ft 470 kts 359°
2026-04-22 03:53 -1.76117 114.86022 37903 ft 470 kts 359°
2026-04-22 03:54 -1.69577 114.85820 37900 ft 471 kts 359°
2026-04-22 03:54 -1.63030 114.85616 37902 ft 472 kts 359°
2026-04-22 03:55 -1.56482 114.85411 37902 ft 472 kts 359°
2026-04-22 03:55 -1.49935 114.85204 37902 ft 472 kts 359°
2026-04-22 03:56 -1.43389 114.84992 37899 ft 472 kts 359°
2026-04-22 03:56 -1.36841 114.84770 37900 ft 473 kts 359°
2026-04-22 03:57 -1.30268 114.84560 37902 ft 474 kts 359°
2026-04-22 03:57 -1.23691 114.84370 37901 ft 474 kts 359°
2026-04-22 03:58 -1.17109 114.84173 37898 ft 474 kts 359°
2026-04-22 03:58 -1.10535 114.83964 37898 ft 474 kts 359°
2026-04-22 03:59 -1.03956 114.83760 37900 ft 474 kts 359°
2026-04-22 03:59 -0.97404 114.83552 37898 ft 471 kts 359°
2026-04-22 04:00 -0.90859 114.83410 37901 ft 471 kts
2026-04-22 04:00 -0.84324 114.83464 37904 ft 471 kts
2026-04-22 04:01 -0.77778 114.83515 37898 ft 471 kts
2026-04-22 04:01 -0.71237 114.83563 37897 ft 471 kts
2026-04-22 04:02 -0.64707 114.83608 37902 ft 469 kts
2026-04-22 04:02 -0.58191 114.83655 37900 ft 469 kts
2026-04-22 04:03 -0.51677 114.83702 37905 ft 469 kts
2026-04-22 04:03 -0.45159 114.83743 37949 ft 470 kts
2026-04-22 04:04 -0.42332 114.83762 38108 ft 470 kts
2026-04-22 04:04 -0.39065 114.83786 38355 ft 469 kts
2026-04-22 04:04 -0.35808 114.83811 38604 ft 468 kts
2026-04-22 04:04 -0.32564 114.83837 38801 ft 468 kts
2026-04-22 04:05 -0.29315 114.83859 38973 ft 468 kts
2026-04-22 04:05 -0.26075 114.83881 39137 ft 468 kts
2026-04-22 04:05 -0.22824 114.83905 39314 ft 467 kts
2026-04-22 04:05 -0.19579 114.83927 39472 ft 467 kts
2026-04-22 04:06 -0.16335 114.83951 39638 ft 467 kts
2026-04-22 04:06 -0.13098 114.83973 39804 ft 466 kts
2026-04-22 04:06 -0.09857 114.83997 39942 ft 466 kts
2026-04-22 04:06 -0.06632 114.84022 39967 ft 465 kts
2026-04-22 04:07 -0.00170 114.84071 39936 ft 465 kts
2026-04-22 04:07 0.06278 114.84114 39935 ft 464 kts
2026-04-22 04:08 0.12728 114.84159 39934 ft 464 kts
2026-04-22 04:08 0.19177 114.84201 39932 ft 464 kts
2026-04-22 04:09 0.25627 114.84249 39930 ft 464 kts
2026-04-22 04:09 0.32070 114.84295 39932 ft 464 kts
2026-04-22 04:10 0.38522 114.84339 39932 ft 464 kts
2026-04-22 04:10 0.44979 114.84384 39940 ft 465 kts
2026-04-22 04:11 0.51428 114.84433 39945 ft 464 kts
2026-04-22 04:11 0.57871 114.84479 39946 ft 464 kts
2026-04-22 04:12 0.64321 114.84524 39942 ft 464 kts
2026-04-22 04:12 0.70776 114.84567 39943 ft 465 kts
2026-04-22 04:13 0.77242 114.84615 39942 ft 466 kts
2026-04-22 04:13 0.83707 114.84660 39944 ft 466 kts
2026-04-22 04:14 0.90179 114.84705 39945 ft 466 kts
2026-04-22 04:14 0.96648 114.84739 39942 ft 466 kts
2026-04-22 04:15 1.03119 114.84791 39958 ft 466 kts
2026-04-22 04:15 1.09587 114.84838 39957 ft 465 kts
2026-04-22 04:16 1.19275 114.84897 39958 ft 465 kts
2026-04-22 04:17 1.25730 114.84941 39964 ft 465 kts
2026-04-22 04:17 1.32187 114.84993 39967 ft 465 kts
2026-04-22 04:18 1.38649 114.85040 39977 ft 465 kts
2026-04-22 04:18 1.45108 114.85084 39969 ft 465 kts
2026-04-22 04:19 1.51579 114.85134 39972 ft 466 kts
2026-04-22 04:19 1.58036 114.85184 39972 ft 465 kts
2026-04-22 04:20 1.64507 114.85235 39974 ft 465 kts
2026-04-22 04:20 1.70960 114.85281 39972 ft 465 kts
2026-04-22 04:21 1.77429 114.85323 39971 ft 465 kts
2026-04-22 04:21 1.83876 114.85366 39971 ft 465 kts
2026-04-22 04:22 1.90329 114.85422 39968 ft 465 kts
2026-04-22 04:22 1.96785 114.85474 39968 ft 465 kts
2026-04-22 04:23 2.03236 114.85514 39970 ft 464 kts
2026-04-22 04:23 2.09683 114.85557 39965 ft 464 kts
2026-04-22 04:24 2.16114 114.85602 39964 ft 463 kts
2026-04-22 04:24 2.22534 114.85648 39966 ft 463 kts
2026-04-22 04:25 2.28958 114.85694 39966 ft 462 kts
2026-04-22 04:25 2.35388 114.85752 39967 ft 463 kts
2026-04-22 04:26 2.41814 114.85809 39970 ft 463 kts
2026-04-22 04:26 2.48238 114.85867 39968 ft 462 kts
2026-04-22 04:27 2.54653 114.85917 39965 ft 462 kts
2026-04-22 04:27 2.61075 114.85979 39964 ft 462 kts
2026-04-22 04:28 2.67500 114.86031 39958 ft 462 kts
2026-04-22 04:28 2.73917 114.86086 39957 ft 462 kts
2026-04-22 04:29 2.80340 114.86143 39947 ft 462 kts
2026-04-22 04:29 2.86743 114.86197 39947 ft 461 kts
2026-04-22 04:30 2.93146 114.86255 39934 ft 461 kts
2026-04-22 04:30 2.99549 114.86310 39936 ft 461 kts
2026-04-22 04:31 3.05954 114.86361 39929 ft 462 kts
2026-04-22 04:31 3.12364 114.86419 39928 ft 461 kts
2026-04-22 04:32 3.18777 114.86475 39926 ft 461 kts
2026-04-22 04:32 3.25182 114.86529 39925 ft 462 kts
2026-04-22 04:33 3.31591 114.86584 39924 ft 462 kts
2026-04-22 04:33 3.38001 114.86638 39922 ft 462 kts
2026-04-22 04:34 3.44415 114.86692 39922 ft 462 kts
2026-04-22 04:34 3.50836 114.86748 39918 ft 463 kts
2026-04-22 04:35 3.57269 114.86806 39915 ft 464 kts
2026-04-22 04:35 3.63708 114.86862 39917 ft 463 kts
2026-04-22 04:36 3.70146 114.86918 39920 ft 463 kts
2026-04-22 04:36 3.76577 114.86974 39918 ft 463 kts
2026-04-22 04:37 3.83008 114.87031 39916 ft 463 kts
2026-04-22 04:37 3.89450 114.87087 39918 ft 463 kts
2026-04-22 04:38 3.95882 114.87140 39916 ft 464 kts
2026-04-22 04:38 4.02313 114.87194 39911 ft 463 kts
2026-04-22 04:39 4.08750 114.87250 39910 ft 463 kts
2026-04-22 04:39 4.15187 114.87310 39905 ft 463 kts
2026-04-22 04:40 4.21601 114.87364 39905 ft 462 kts
2026-04-22 04:40 4.28024 114.87420 39906 ft 462 kts
2026-04-22 04:41 4.34441 114.87476 39903 ft 462 kts
2026-04-22 04:41 4.40852 114.87531 39899 ft 462 kts
2026-04-22 04:42 4.47272 114.87617 39895 ft 462 kts
2026-04-22 04:42 4.53689 114.87777 39895 ft 463 kts
2026-04-22 04:43 4.60119 114.87925 39887 ft 463 kts
2026-04-22 04:43 4.66552 114.88073 39892 ft 463 kts
2026-04-22 04:44 4.72974 114.88219 39888 ft 463 kts
2026-04-22 04:44 4.79408 114.88366 39887 ft 463 kts
2026-04-22 04:45 4.85836 114.88512 39884 ft 463 kts
2026-04-22 04:45 4.92286 114.88450 39911 ft 465 kts 359°
2026-04-22 04:46 4.98735 114.88294 39904 ft 465 kts 359°
2026-04-22 04:46 5.05188 114.88143 39900 ft 464 kts 359°
2026-04-22 04:47 5.11641 114.87997 39899 ft 465 kts 359°
2026-04-22 04:47 5.18083 114.87850 39893 ft 465 kts 359°
2026-04-22 04:48 5.24533 114.87702 39889 ft 464 kts 359°
2026-04-22 04:48 5.30978 114.87552 39888 ft 464 kts 359°
2026-04-22 04:49 5.37428 114.87432 39888 ft 464 kts 359°
2026-04-22 04:49 5.43875 114.87368 39885 ft 464 kts 359°
2026-04-22 04:50 5.50318 114.87291 39885 ft 464 kts 359°
2026-04-22 04:50 5.56774 114.87208 39886 ft 466 kts 359°
2026-04-22 04:51 5.63247 114.87129 39883 ft 466 kts 359°
2026-04-22 04:51 5.69731 114.87029 39889 ft 466 kts 359°
2026-04-22 04:52 5.76199 114.86931 39889 ft 467 kts 359°
2026-04-22 04:52 5.82677 114.86832 39886 ft 466 kts 359°
2026-04-22 04:53 5.89158 114.86734 39885 ft 468 kts 359°
2026-04-22 04:53 5.95690 114.86632 39888 ft 471 kts 359°
2026-04-22 04:54 6.02224 114.86517 39887 ft 472 kts 358°
2026-04-22 04:54 6.08764 114.86402 39888 ft 470 kts 358°
2026-04-22 04:55 6.15316 114.86280 39888 ft 472 kts 358°
2026-04-22 04:55 6.21851 114.86170 39894 ft 471 kts 358°
2026-04-22 04:56 6.28399 114.86060 39891 ft 471 kts 358°
2026-04-22 04:56 6.34938 114.85946 39892 ft 472 kts 358°
2026-04-22 04:57 6.41484 114.85857 39889 ft 472 kts 358°
2026-04-22 04:57 6.48032 114.85767 39890 ft 471 kts 358°
2026-04-22 04:58 6.54585 114.85677 39888 ft 472 kts 358°
2026-04-22 04:58 6.61108 114.85583 39887 ft 470 kts 358°
2026-04-22 04:59 6.67630 114.85492 39887 ft 469 kts 358°
2026-04-22 04:59 6.74158 114.85401 39891 ft 470 kts 358°
2026-04-22 05:00 6.80676 114.85310 39894 ft 470 kts 357°
2026-04-22 05:00 6.87186 114.85217 39895 ft 469 kts 358°
2026-04-22 05:01 6.93699 114.85125 39895 ft 467 kts 358°
2026-04-22 05:01 7.00190 114.85032 39889 ft 467 kts 357°
2026-04-22 05:02 7.06670 114.84944 39891 ft 467 kts 358°
2026-04-22 05:02 7.13158 114.84849 39891 ft 467 kts 357°
2026-04-22 05:03 7.19637 114.84760 39892 ft 467 kts 357°
2026-04-22 05:03 7.26126 114.84664 39896 ft 467 kts 358°
2026-04-22 05:04 7.32608 114.84571 39896 ft 467 kts 358°
2026-04-22 05:04 7.39099 114.84476 39892 ft 467 kts 357°
2026-04-22 05:05 7.45583 114.84380 39896 ft 467 kts 358°
2026-04-22 05:05 7.52074 114.84293 39897 ft 467 kts 358°
2026-04-22 05:06 7.58559 114.84196 39900 ft 467 kts 358°
2026-04-22 05:06 7.65057 114.84102 39901 ft 468 kts 358°
2026-04-22 05:07 7.71559 114.84010 39900 ft 469 kts 357°
2026-04-22 05:07 7.78059 114.83918 39897 ft 468 kts 358°
2026-04-22 05:08 7.84569 114.83824 39897 ft 468 kts 358°
2026-04-22 05:08 7.91068 114.83730 39897 ft 468 kts 357°
2026-04-22 05:09 7.97578 114.83636 39898 ft 469 kts 358°
2026-04-22 05:09 8.04098 114.83544 39901 ft 469 kts 358°
2026-04-22 05:10 8.10615 114.83449 39900 ft 469 kts 358°
2026-04-22 05:10 8.17136 114.83357 39899 ft 469 kts 357°
2026-04-22 05:11 8.23649 114.83259 39898 ft 469 kts 357°
2026-04-22 05:11 8.30167 114.83163 39893 ft 468 kts 357°
2026-04-22 05:12 8.36665 114.83058 39896 ft 468 kts 357°
2026-04-22 05:12 8.43167 114.82957 39900 ft 468 kts 357°
2026-04-22 05:13 8.49679 114.82859 39898 ft 468 kts 357°
2026-04-22 05:13 8.56187 114.82760 39896 ft 468 kts 357°
2026-04-22 05:14 8.62680 114.82661 39900 ft 468 kts 357°
2026-04-22 05:14 8.69181 114.82558 39895 ft 467 kts 357°
2026-04-22 05:15 8.75668 114.82457 39895 ft 467 kts 357°
2026-04-22 05:15 8.82157 114.82359 39900 ft 468 kts 357°
2026-04-22 05:16 8.88649 114.82258 39900 ft 468 kts 357°
2026-04-22 05:16 8.95142 114.82158 39897 ft 467 kts 357°
2026-04-22 05:17 9.01630 114.82055 39895 ft 467 kts 357°
2026-04-22 05:17 9.08116 114.81952 39898 ft 467 kts 357°
2026-04-22 05:18 9.17854 114.81808 39896 ft 467 kts 357°
2026-04-22 05:18 9.24344 114.81710 39897 ft 467 kts 357°
2026-04-22 05:19 9.30408 114.81614 39899 ft 467 kts 357°
2026-04-22 05:19 9.36918 114.81512 40052 ft 467 kts 357°
2026-04-22 05:20 9.40155 114.81462 40235 ft 466 kts 357°
2026-04-22 05:20 9.43392 114.81411 40425 ft 465 kts 357°
2026-04-22 05:20 9.46623 114.81362 40633 ft 464 kts 357°
2026-04-22 05:20 9.49841 114.81312 40828 ft 463 kts 357°
2026-04-22 05:21 9.53061 114.81262 41033 ft 463 kts 357°
2026-04-22 05:21 9.56267 114.81212 41241 ft 462 kts 357°
2026-04-22 05:21 9.59471 114.81161 41447 ft 461 kts 357°
2026-04-22 05:21 9.62675 114.81111 41670 ft 460 kts 357°
2026-04-22 05:22 9.65857 114.81062 41912 ft 459 kts 357°
2026-04-22 05:22 9.69011 114.81015 42096 ft 447 kts 357°
2026-04-22 05:22 9.72072 114.80965 42088 ft 434 kts 357°
2026-04-22 05:22 9.75039 114.80919 42022 ft 422 kts 357°
2026-04-22 05:23 9.80923 114.80830 42010 ft 425 kts 357°
2026-04-22 05:23 9.86768 114.80711 42008 ft 421 kts 356°
2026-04-22 05:24 9.92543 114.80551 42010 ft 413 kts 356°
2026-04-22 05:24 9.98227 114.80401 41999 ft 406 kts 356°
2026-04-22 05:25 10.03872 114.80257 41998 ft 403 kts 356°
2026-04-22 05:25 10.09439 114.80116 41992 ft 401 kts 356°
2026-04-22 05:26 10.14975 114.79972 41781 ft 406 kts 356°
2026-04-22 05:26 10.17878 114.79888 41221 ft 429 kts 356°
2026-04-22 05:26 10.20923 114.79797 40912 ft 448 kts 356°
2026-04-22 05:27 10.24070 114.79727 40675 ft 458 kts 357°
2026-04-22 05:27 10.27261 114.79658 40450 ft 461 kts 357°
2026-04-22 05:27 10.33703 114.79491 40520 ft 468 kts 357°
2026-04-22 05:28 10.36964 114.79406 40639 ft 470 kts 357°
2026-04-22 05:28 10.40227 114.79324 40754 ft 472 kts 357°
2026-04-22 05:28 10.43508 114.79239 40881 ft 473 kts 357°
2026-04-22 05:28 10.46796 114.79156 41011 ft 474 kts 357°
2026-04-22 05:29 10.50084 114.79073 41129 ft 474 kts 357°
2026-04-22 05:29 10.53374 114.78987 41274 ft 474 kts 357°
2026-04-22 05:29 10.56668 114.78902 41386 ft 473 kts 357°
2026-04-22 05:29 10.59953 114.78822 41509 ft 472 kts 357°
2026-04-22 05:30 10.63225 114.78738 41651 ft 471 kts 357°
2026-04-22 05:30 10.66494 114.78654 41769 ft 470 kts 357°
2026-04-22 05:30 10.69755 114.78569 41903 ft 470 kts 356°
2026-04-22 05:30 10.73002 114.78483 42036 ft 462 kts 356°
2026-04-22 05:31 10.76141 114.78401 42147 ft 443 kts 356°
2026-04-22 05:31 10.79166 114.78323 42250 ft 427 kts 356°
2026-04-22 05:31 10.82064 114.78250 42328 ft 408 kts 356°
2026-04-22 05:31 10.84829 114.78183 42403 ft 390 kts 356°
2026-04-22 05:32 10.87596 114.78114 41430 ft 415 kts 356°
2026-04-22 05:32 10.90587 114.78032 40656 ft 446 kts 356°
2026-04-22 05:32 10.93735 114.77947 40199 ft 459 kts 357°
2026-04-22 05:32 10.96951 114.77864 39990 ft 463 kts 357°
2026-04-22 05:33 11.03415 114.77697 39893 ft 466 kts 357°
2026-04-22 05:33 11.09881 114.77534 39893 ft 467 kts 357°
2026-04-22 05:34 11.16361 114.77365 39895 ft 467 kts 357°
2026-04-22 05:34 11.22833 114.77203 39849 ft 468 kts 358°
2026-04-22 05:35 11.26090 114.77118 39747 ft 467 kts 357°
2026-04-22 05:35 11.29331 114.77031 39787 ft 467 kts 357°
2026-04-22 05:35 11.35812 114.76862 39854 ft 467 kts 357°
2026-04-22 05:36 11.42289 114.76701 39870 ft 467 kts 357°
2026-04-22 05:36 11.48768 114.76529 39861 ft 466 kts 356°
2026-04-22 05:37 11.55235 114.76230 39861 ft 466 kts 356°
2026-04-22 05:37 11.61700 114.75910 39861 ft 466 kts 355°
2026-04-22 05:38 11.68174 114.75588 39867 ft 466 kts 356°
2026-04-22 05:38 11.74634 114.75269 39869 ft 466 kts 356°
2026-04-22 05:39 11.81098 114.74950 39865 ft 466 kts 356°
2026-04-22 05:39 11.87561 114.74635 39860 ft 466 kts 356°
2026-04-22 05:40 11.94023 114.74316 39871 ft 466 kts 356°
2026-04-22 05:40 12.00494 114.74097 39866 ft 466 kts 357°
2026-04-22 05:41 12.06962 114.73895 39861 ft 466 kts 357°
2026-04-22 05:41 12.13423 114.73693 39866 ft 466 kts 357°
2026-04-22 05:42 12.19895 114.73490 39878 ft 466 kts 357°
2026-04-22 05:42 12.26361 114.73288 39861 ft 466 kts 357°
2026-04-22 05:43 12.32828 114.73087 39874 ft 466 kts 357°
2026-04-22 05:43 12.39292 114.72886 39860 ft 466 kts 357°
2026-04-22 05:44 12.45758 114.72684 39860 ft 465 kts 357°
2026-04-22 05:44 12.52211 114.72484 39870 ft 465 kts 357°
2026-04-22 05:45 12.58675 114.72280 39862 ft 465 kts 357°
2026-04-22 05:45 12.65137 114.72081 39869 ft 464 kts 357°
2026-04-22 05:46 12.71577 114.71876 39864 ft 464 kts 357°
2026-04-22 05:46 12.78015 114.71674 39862 ft 464 kts 357°
2026-04-22 05:47 12.84455 114.71475 39864 ft 464 kts 357°
2026-04-22 05:47 12.90893 114.71273 39868 ft 464 kts 357°
2026-04-22 05:48 12.97327 114.71072 39863 ft 464 kts 357°
2026-04-22 05:48 13.03765 114.70871 39864 ft 464 kts 357°
2026-04-22 05:49 13.10201 114.70668 39863 ft 463 kts 357°
2026-04-22 05:49 13.16640 114.70465 39864 ft 464 kts 357°
2026-04-22 05:50 13.23070 114.70266 39869 ft 463 kts 357°
2026-04-22 05:50 13.29509 114.70065 39868 ft 464 kts 357°
2026-04-22 05:51 13.35913 114.69862 39867 ft 461 kts 357°
2026-04-22 05:51 13.42306 114.69661 39868 ft 461 kts 357°
2026-04-22 05:52 13.48707 114.69462 39866 ft 461 kts 357°
2026-04-22 05:52 13.55102 114.69259 39865 ft 461 kts 357°
2026-04-22 05:53 13.61494 114.69059 39864 ft 461 kts 357°
2026-04-22 05:53 13.67889 114.68858 39867 ft 460 kts 357°
2026-04-22 05:54 13.74273 114.68655 39866 ft 460 kts 357°
2026-04-22 05:54 13.80653 114.68451 39865 ft 460 kts 357°
2026-04-22 05:55 13.87037 114.68249 39867 ft 460 kts 357°
2026-04-22 05:55 13.93415 114.68048 39869 ft 460 kts 357°
2026-04-22 05:56 13.99800 114.67847 39869 ft 460 kts 357°
2026-04-22 05:56 14.06184 114.67644 39869 ft 460 kts 357°
2026-04-22 05:57 14.12573 114.67442 39867 ft 460 kts 357°
2026-04-22 05:57 14.18952 114.67238 39868 ft 460 kts 357°
2026-04-22 05:58 14.25339 114.67035 39867 ft 460 kts 357°
2026-04-22 05:58 14.31717 114.66830 39867 ft 459 kts 357°
2026-04-22 05:59 14.38079 114.66630 39866 ft 458 kts 357°
2026-04-22 05:59 14.44444 114.66432 39867 ft 459 kts 357°
2026-04-22 06:00 14.50810 114.66226 39870 ft 458 kts 357°
2026-04-22 06:00 14.57173 114.66025 39880 ft 458 kts 357°
2026-04-22 06:01 14.63530 114.65825 39867 ft 458 kts 357°
2026-04-22 06:01 14.69887 114.65622 39866 ft 458 kts 357°
2026-04-22 06:02 14.76243 114.65422 39866 ft 458 kts 357°
2026-04-22 06:02 14.82602 114.65220 39870 ft 458 kts 357°
2026-04-22 06:03 14.88959 114.65017 39870 ft 458 kts 357°
2026-04-22 06:03 14.95304 114.64814 39871 ft 457 kts 357°
2026-04-22 06:04 15.01642 114.64612 39870 ft 456 kts 357°
2026-04-22 06:04 15.07970 114.64410 39870 ft 456 kts 357°
2026-04-22 06:05 15.14302 114.64206 39872 ft 456 kts 357°
2026-04-22 06:05 15.20632 114.64005 39872 ft 456 kts 357°
2026-04-22 06:06 15.26971 114.63803 39876 ft 456 kts 357°
2026-04-22 06:06 15.33284 114.63599 39872 ft 455 kts 357°
2026-04-22 06:07 15.39607 114.63396 39873 ft 455 kts 357°
2026-04-22 06:07 15.45919 114.63194 39874 ft 455 kts 357°
2026-04-22 06:08 15.52250 114.62994 39872 ft 456 kts 357°
2026-04-22 06:08 15.58564 114.62789 39876 ft 455 kts 357°
2026-04-22 06:09 15.64864 114.62586 39874 ft 454 kts 357°
2026-04-22 06:09 15.71163 114.62384 39870 ft 454 kts 357°
2026-04-22 06:10 15.77465 114.62180 39872 ft 454 kts 357°
2026-04-22 06:10 15.83762 114.61979 39875 ft 454 kts 357°
2026-04-22 06:11 15.90057 114.61775 39881 ft 454 kts 357°
2026-04-22 06:11 15.96350 114.61574 39875 ft 454 kts 357°
2026-04-22 06:12 16.02645 114.61371 39873 ft 453 kts 357°
2026-04-22 06:12 16.08941 114.61167 39873 ft 454 kts 357°
2026-04-22 06:13 16.15241 114.60964 39873 ft 453 kts 357°
2026-04-22 06:13 16.21527 114.60764 39873 ft 453 kts 357°
2026-04-22 06:14 16.27821 114.60559 39874 ft 453 kts 357°
2026-04-22 06:14 16.34104 114.60355 39873 ft 453 kts 357°
2026-04-22 06:15 16.40402 114.60154 39872 ft 453 kts 357°
2026-04-22 06:15 16.46682 114.59950 39873 ft 453 kts 357°
2026-04-22 06:16 16.52973 114.59744 39873 ft 453 kts 357°
2026-04-22 06:16 16.59245 114.59539 39874 ft 451 kts 357°
2026-04-22 06:17 16.65498 114.59342 39870 ft 451 kts 357°
2026-04-22 06:17 16.71755 114.59138 39870 ft 451 kts 357°
2026-04-22 06:18 16.78012 114.58931 39870 ft 451 kts 357°
2026-04-22 06:18 16.84261 114.58729 39870 ft 451 kts 357°
2026-04-22 06:19 16.90515 114.58529 39869 ft 449 kts 357°
2026-04-22 06:19 16.96742 114.58327 39870 ft 449 kts 357°
2026-04-22 06:20 17.02975 114.58126 39870 ft 449 kts 357°
2026-04-22 06:20 17.09201 114.57924 39870 ft 449 kts 357°
2026-04-22 06:21 17.15430 114.57723 39873 ft 449 kts 357°
2026-04-22 06:21 17.21661 114.57498 39873 ft 449 kts 357°
2026-04-22 06:22 17.27888 114.57284 39869 ft 449 kts 358°
2026-04-22 06:22 17.34114 114.57088 39868 ft 449 kts 357°
2026-04-22 06:23 17.40346 114.56883 39871 ft 449 kts 357°
2026-04-22 06:23 17.46570 114.56697 39870 ft 449 kts 358°
2026-04-22 06:24 17.55913 114.56417 39868 ft 448 kts 357°
2026-04-22 06:25 17.62130 114.56223 39866 ft 448 kts 357°
2026-04-22 06:25 17.68348 114.56035 39870 ft 448 kts 357°
2026-04-22 06:26 17.74574 114.55840 39870 ft 448 kts 357°
2026-04-22 06:26 17.80792 114.55654 39870 ft 448 kts 358°
2026-04-22 06:27 17.86998 114.55457 39870 ft 446 kts 357°
2026-04-22 06:27 17.93193 114.55271 39870 ft 446 kts 358°
2026-04-22 06:28 17.99396 114.55077 39870 ft 446 kts 357°
2026-04-22 06:28 18.05591 114.54875 39870 ft 446 kts 357°
2026-04-22 06:29 18.11786 114.54678 39870 ft 446 kts 358°
2026-04-22 06:29 18.17965 114.54481 39870 ft 444 kts 357°
2026-04-22 06:30 18.24124 114.54229 39872 ft 444 kts 354°
2026-04-22 06:30 18.30241 114.53495 39874 ft 443 kts 352°
2026-04-22 06:31 18.36348 114.52726 39873 ft 443 kts 352°
2026-04-22 06:31 18.42461 114.51943 39871 ft 443 kts 352°
2026-04-22 06:32 18.48572 114.51164 39870 ft 442 kts 352°
2026-04-22 06:32 18.54665 114.50409 39870 ft 442 kts 352°
2026-04-22 06:33 18.60759 114.49642 39869 ft 442 kts 352°
2026-04-22 06:33 18.66854 114.48874 39867 ft 442 kts 352°
2026-04-22 06:34 18.72947 114.48103 39866 ft 442 kts 352°
2026-04-22 06:34 18.79034 114.47327 39869 ft 442 kts 352°
2026-04-22 06:35 18.85147 114.46558 39868 ft 443 kts 352°
2026-04-22 06:35 18.91250 114.45782 39864 ft 443 kts 352°
2026-04-22 06:36 18.97349 114.45002 39867 ft 443 kts 352°
2026-04-22 06:36 19.03479 114.44361 39868 ft 443 kts 354°
2026-04-22 06:37 19.09619 114.43824 39873 ft 444 kts 353°
2026-04-22 06:37 19.15758 114.43287 39868 ft 444 kts 353°
2026-04-22 06:38 19.21899 114.42755 39867 ft 444 kts 353°
2026-04-22 06:38 19.28042 114.42227 39865 ft 444 kts 353°
2026-04-22 06:39 19.34184 114.41694 39864 ft 444 kts 353°
2026-04-22 06:39 19.40328 114.41150 39868 ft 444 kts 353°
2026-04-22 06:40 19.46468 114.40622 39864 ft 443 kts 353°
2026-04-22 06:40 19.52605 114.40088 39861 ft 443 kts 353°
2026-04-22 06:41 19.58739 114.39556 39859 ft 443 kts 353°
2026-04-22 06:41 19.64873 114.39016 39859 ft 443 kts 353°
2026-04-22 06:42 19.71008 114.38472 39867 ft 445 kts 353°
2026-04-22 06:42 19.77138 114.37941 39860 ft 441 kts 353°
2026-04-22 06:43 19.83250 114.37407 39856 ft 441 kts 353°
2026-04-22 06:43 19.89353 114.36872 39856 ft 441 kts 352°
2026-04-22 06:44 19.95457 114.36335 39855 ft 441 kts 353°
2026-04-22 06:44 20.01561 114.35803 39856 ft 441 kts 353°
2026-04-22 06:45 20.07669 114.35258 39851 ft 441 kts 352°
2026-04-22 06:45 20.13766 114.34720 39849 ft 441 kts 352°
2026-04-22 06:46 20.19875 114.34180 39849 ft 441 kts 352°
2026-04-22 06:46 20.25981 114.33647 39849 ft 441 kts 352°
2026-04-22 06:47 20.32084 114.33115 39849 ft 441 kts 352°
2026-04-22 06:47 20.38187 114.32581 39849 ft 441 kts 352°
2026-04-22 06:48 20.44287 114.32043 39851 ft 441 kts 353°
2026-04-22 06:48 20.50393 114.31518 39850 ft 441 kts 352°
2026-04-22 06:49 20.56491 114.30980 39848 ft 441 kts 352°
2026-04-22 06:49 20.62586 114.30443 39850 ft 441 kts 352°
2026-04-22 06:50 20.68689 114.29908 39849 ft 441 kts 352°
2026-04-22 06:50 20.74788 114.29354 39846 ft 441 kts 352°
2026-04-22 06:51 20.80884 114.28814 39847 ft 441 kts 352°
2026-04-22 06:51 20.86986 114.28285 39845 ft 441 kts 352°
2026-04-22 06:52 20.93083 114.27779 39844 ft 441 kts 353°
2026-04-22 06:52 20.99186 114.27268 39846 ft 441 kts 352°
2026-04-22 06:53 21.05283 114.26747 39845 ft 440 kts 352°
2026-04-22 06:53 21.11365 114.26185 39843 ft 440 kts 352°
2026-04-22 06:54 21.17466 114.25622 39841 ft 440 kts 352°
2026-04-22 06:54 21.23566 114.25064 39840 ft 440 kts 352°
2026-04-22 06:55 21.29643 114.24508 39843 ft 439 kts 352°
2026-04-22 06:55 21.35717 114.23951 39842 ft 439 kts 352°
2026-04-22 06:56 21.41791 114.23405 39843 ft 439 kts 352°
2026-04-22 06:56 21.47466 114.22908 39850 ft 439 kts 352°
2026-04-22 06:57 21.53531 114.22365 39856 ft 439 kts 352°
2026-04-22 06:57 21.59618 114.21838 39864 ft 439 kts 352°
2026-04-22 06:58 21.65707 114.21287 39843 ft 439 kts 351°
2026-04-22 06:58 21.71774 114.20746 39853 ft 439 kts 351°
2026-04-22 06:59 21.77846 114.20202 39843 ft 439 kts 352°
2026-04-22 06:59 21.83919 114.19650 39842 ft 439 kts 351°
2026-04-22 07:00 21.89986 114.19106 39842 ft 439 kts 351°
2026-04-22 07:00 21.96050 114.18562 39845 ft 438 kts 351°
2026-04-22 07:01 22.02119 114.18014 39850 ft 438 kts 351°
2026-04-22 07:01 22.08182 114.17467 39844 ft 438 kts 351°
2026-04-22 07:02 22.14247 114.16920 39835 ft 438 kts 351°
2026-04-22 07:02 22.20320 114.16372 39801 ft 438 kts 351°
2026-04-22 07:02 22.23355 114.16094 39639 ft 438 kts 351°
2026-04-22 07:03 22.26381 114.15819 39434 ft 438 kts 351°
2026-04-22 07:03 22.29409 114.15548 39223 ft 438 kts 352°
2026-04-22 07:03 22.32441 114.15274 39008 ft 438 kts 352°
2026-04-22 07:03 22.35470 114.14995 38791 ft 438 kts 352°
2026-04-22 07:04 22.38506 114.14717 38565 ft 439 kts 352°
2026-04-22 07:04 22.41545 114.14447 38319 ft 439 kts 352°
2026-04-22 07:04 22.44577 114.14179 38052 ft 439 kts 352°
2026-04-22 07:04 22.47619 114.13907 37917 ft 440 kts 352°
2026-04-22 07:05 22.50668 114.13629 37902 ft 441 kts 351°
2026-04-22 07:05 22.56559 114.12174 37921 ft 433 kts 334°
2026-04-22 07:06 22.61856 114.09484 37340 ft 424 kts 331°
2026-04-22 07:06 22.64503 114.08101 36620 ft 423 kts 331°
2026-04-22 07:06 22.67151 114.06730 35901 ft 422 kts 331°
2026-04-22 07:06 22.69792 114.05371 35203 ft 420 kts 331°
2026-04-22 07:07 22.72428 114.04015 34438 ft 421 kts 331°
2026-04-22 07:07 22.75068 114.02657 33625 ft 421 kts 330°
2026-04-22 07:07 22.77711 114.01293 32756 ft 422 kts 330°
2026-04-22 07:07 22.80359 113.99921 31927 ft 424 kts 330°
2026-04-22 07:08 22.83014 113.98547 31092 ft 424 kts 330°
2026-04-22 07:08 22.85675 113.97184 30202 ft 426 kts 330°
2026-04-22 07:08 22.88394 113.95873 29125 ft 431 kts 335°
2026-04-22 07:08 22.91304 113.94957 28034 ft 442 kts 345°
2026-04-22 07:09 22.93445 113.94592 27298 ft 448 kts 348°
2026-04-22 07:09 22.96553 113.94174 26221 ft 452 kts 349°
2026-04-22 07:09 22.99667 113.93770 25195 ft 451 kts 349°
2026-04-22 07:09 23.02768 113.93359 24425 ft 456 kts 349°
2026-04-22 07:10 23.05931 113.92932 23752 ft 457 kts 349°
2026-04-22 07:10 23.09043 113.92510 22950 ft 448 kts 349°
2026-04-22 07:10 23.12113 113.92090 22202 ft 446 kts 349°
2026-04-22 07:10 23.15192 113.91663 21708 ft 447 kts 349°
2026-04-22 07:11 23.18263 113.91242 21282 ft 444 kts 349°
2026-04-22 07:11 23.21307 113.90827 20733 ft 441 kts 349°
2026-04-22 07:11 23.24306 113.90415 20062 ft 430 kts 349°
2026-04-22 07:11 23.27227 113.90011 19380 ft 420 kts 349°
2026-04-22 07:12 23.30089 113.89619 18723 ft 411 kts 349°
2026-04-22 07:12 23.32889 113.89231 18060 ft 404 kts 348°
2026-04-22 07:12 23.35616 113.88700 17457 ft 390 kts 339°
2026-04-22 07:12 23.37990 113.87503 17133 ft 367 kts 323°
2026-04-22 07:13 23.39896 113.85799 16811 ft 347 kts 311°
2026-04-22 07:13 23.41337 113.83743 15872 ft 341 kts 297°
2026-04-22 07:13 23.42282 113.81400 14676 ft 339 kts 285°
2026-04-22 07:13 23.42884 113.78916 13427 ft 341 kts 282°
2026-04-22 07:14 23.43439 113.76402 12012 ft 343 kts 282°
2026-04-22 07:14 23.44009 113.73871 10607 ft 346 kts 282°
2026-04-22 07:14 23.44594 113.71339 9179 ft 345 kts 283°
2026-04-22 07:14 23.45189 113.68814 7774 ft 346 kts 282°
2026-04-22 07:15 23.45795 113.66246 6423 ft 361 kts 282°
2026-04-22 07:15 23.46429 113.63585 5219 ft 364 kts 282°
2026-04-22 07:15 23.47061 113.60941 4103 ft 361 kts 281°
2026-04-22 07:15 23.47683 113.58316 3174 ft 356 kts 281°
2026-04-22 07:16 23.48290 113.55766 2598 ft 341 kts 281°
2026-04-22 07:16 23.48864 113.53344 2298 ft 324 kts 282°
2026-04-22 07:16 23.49415 113.51035 2134 ft 306 kts 281°
2026-04-22 07:16 23.49928 113.48858 2055 ft 289 kts 282°
2026-04-22 07:17 23.50416 113.46792 2004 ft 274 kts 281°
2026-04-22 07:17 23.50874 113.44855 1982 ft 255 kts 281°
2026-04-22 07:17 23.51303 113.43045 1975 ft 242 kts 281°
2026-04-22 07:17 23.51711 113.41318 1964 ft 231 kts 281°
2026-04-22 07:18 23.52100 113.39678 1922 ft 216 kts 279°
2026-04-22 07:18 23.52459 113.38145 2060 ft 199 kts 277°
2026-04-22 07:18 23.52760 113.36756 2058 ft 173 kts 275°
2026-04-22 07:18 23.52717 113.35655 1986 ft 125 kts 262°
2026-04-22 07:19 23.52573 113.34779 1926 ft 117 kts 232°
2026-04-22 07:19 23.51859 113.34441 1917 ft 118 kts 184°
2026-04-22 07:19 23.51042 113.34396 1962 ft 116 kts 188°
2026-04-22 07:19 23.50242 113.34282 1906 ft 116 kts 192°
2026-04-22 07:20 23.49459 113.34124 1837 ft 112 kts 195°
2026-04-22 07:20 23.48685 113.33936 1667 ft 115 kts 197°
2026-04-22 07:20 23.47911 113.33733 1525 ft 115 kts 199°
2026-04-22 07:20 23.47140 113.33526 1373 ft 116 kts 198°
2026-04-22 07:21 23.46345 113.33312 1226 ft 119 kts 198°
2026-04-22 07:21 23.45545 113.33097 1094 ft 118 kts 199°
2026-04-22 07:21 23.44731 113.32876 950 ft 117 kts 198°
2026-04-22 07:21 23.43953 113.32668 812 ft 115 kts 194°
2026-04-22 07:22 23.43167 113.32454 658 ft 118 kts 194°
2026-04-22 07:22 23.42367 113.32238 539 ft 116 kts 193°
2026-04-22 07:22 23.41596 113.32030 317 ft 116 kts 193°
2026-04-22 07:22 23.40851 113.31827 161 ft 100 kts 193°
2026-04-22 07:23 23.40131 113.31639 155 ft 104 kts 196°
2026-04-22 07:23 23.39490 113.31451 60 ft 78 kts 194°
2026-04-22 07:23 23.39112 113.31348 58 ft 49 kts 192°
2026-04-22 07:23 23.38843 113.31267 61 ft 41 kts 201°
2026-04-22 07:24 23.38596 113.31173 58 ft 22 kts 205°
2026-04-22 07:24 23.38528 113.31127 60 ft 0 kts 219°